Location: Holyhead Bay
(53.3667°N, 4.6667°W)
Time: 05:13:50
(UTC+00:00)

ADEOS Rocket - Pass Details

Date: 22 April 2021
Orbit: 859 x 1306 km, 98.7° (Epoch: 12 May)

Event Time Altitude Azimuth Distance (km) Brightness Sun altitude
Rises 01:32:10 0° 131° (SE) 3,820 5.9 -22.5°
Reaches altitude 10° 01:34:43 10° 124° (ESE) 2,932 5.4 -22.3°
Maximum altitude 01:40:53 40° 57° (ENE) 1,654 4.6 -22.0°
Drops below altitude 10° 01:47:37 10° 352° (N) 3,219 6.5 -21.6°
Sets 01:50:32 0° 346° (NNW) 4,233 7.1 -21.4°
